Regional Weather Roundup
Issued by NWS Bismarck, ND

Home | Current Version | Previous Version | Text Only | Print | Product List | Glossary On
Versions: 1 2 3 4 5 6 7 8 9 10 11 12 13 14 15 16 17 18 19 20 21 22 23 24 25 26 27 28 29 30 31 32 33 34 35 36 37 38 39 40 41 42 43 44 45 46 47 48 49 50
000
ASUS43 KBIS 211602
RWRBIS

NWR BROADCAST TEXT
NATIONAL WEATHER SERVICE BISMARCK ND
1000 AM CST TUE NOV 21 2017

NOTE: "FAIR" INDICATES FEW OR NO CLOUDS BELOW 12,000 FEET WITH NO
SIGNIFICANT WEATHER AND/OR OBSTRUCTIONS TO VISIBILITY.


CITY           SKY/WX    TMP DP  RH WIND       PRES   REMARKS
WILLISTON      CLOUDY     6  -1  73 NW9       30.40R WCI  -8
MINOT          CLOUDY     9   2  73 W16       30.34R WCI  -8
MINOT AFB      CLOUDY     9   2  73 NW20      30.33R FOG     WCI -10
BISMARCK       CLOUDY    18   6  59 NW14G29   30.37R WCI   4
DICKINSON      CLOUDY     7   0  73 W17       30.32R WCI -12
GARRISON         N/A      9   1  70 NW21      30.33R WCI -11
HETTINGER ARPT CLOUDY     9  -1  64 NW18G26   30.34R WCI -10
JAMESTOWN      MOSUNNY   14   6  70 NW22G29   30.27R WCI  -4
CARRINGTON     FAIR      12   7  79 NW24      30.30R WCI  -8
HAZEN          LGT SNOW  10   7  85 W14       30.38R WCI  -5
LINTON         FLURRIES  14   1  57 NW17G23   30.35R WCI  -3
MANDAN         FLURRIES  10   3  72 NW14G20   30.34R WCI  -5
OAKES            N/A     16   7  67 NW21G30   30.27R WCI  -2
RUGBY          FLURRIES  10   7  85 NW18G24   30.30R WCI  -8
STANLEY        PTSUNNY    7   3  85 NW14      30.34R WCI -10
TIOGA          CLOUDY     5   0  78 W15       30.35R WCI -13
WATFORD CITY   CLOUDY     5  -2  72 NW13G20   30.38R WCI -12
$$

CITY           SKY/WX    TMP DP  RH WIND       PRES   REMARKS
GRAND FORKS    MOSUNNY   16   9  74 NW16G25   30.25R WCI   1
GRAND FORKS AF MOSUNNY   15   6  69 N17G25    30.25R WCI  -1
DEVILS LAKE    SUNNY     12   6  77 NW16      30.26R WCI  -5
FARGO          PTSUNNY   17   7  64 N25G32    30.24R WCI  -1
CANDO          FAIR      14   5  67 NW17      30.28R WCI  -3
CAVALIER       FAIR      16   7  67 NW16G23   30.24R WCI   0
GRAFTON        FAIR      14   9  79 NW14      30.27R WCI  -1
GWINNER          N/A     18   9  68 NW23      30.25R WCI   0
LANGDON        FAIR      12   7  79 NW18G25   30.21R WCI  -5
ROLLA          FAIR      10   5  79 NW25      30.24R WCI -10
WALHALLA       FAIR      16   9  73 NW17      30.24R WCI   0
$$

CITY           SKY/WX    TMP DP  RH WIND       PRES   REMARKS
ABERDEEN       SUNNY     17   6  62 N22G30    30.30R WCI   0
MOBRIDGE       CLOUDY    15   4  61 NW21      30.31S WCI  -2
BUFFALO          N/A     14   3  61 NW21      30.25R WCI  -4
RAPID CITY     CLOUDY    25  20  81 N15       30.30R WCI  13
GLASGOW        CLOUDY     5  -3  69 CALM      30.38S
SIDNEY         CLOUDY     6  -3  66 NW10      30.42S WCI  -9
WOLF POINT     CLOUDY     7  -1  70 W7        30.42R WCI  -5
GLENDIVE       CLOUDY     8  -1  66 W7        30.39S WCI  -3
MILES CITY     CLOUDY    18   8  65 CALM      30.36F
BAKER          CLOUDY    10   1  67 NW14      30.34R WCI  -6
$$

CITY           SKY/WX    TMP DP  RH WIND       PRES   REMARKS
BILLINGS       CLOUDY    27  25  92 S7        30.27F WCI  19
GREAT FALLS    CLOUDY    21  18  88 CALM      30.17R
$$





USA.gov is the U.S. government's official web portal to all federal, state and local government web resources and services.